Regional Weather Roundup
Issued by NWS

Home | Current Version | Previous Version | Graphics & Text | Print | Product List | Glossary Off
Versions: 1 2 3 4 5 6 7 8 9 10 11 12 13 14 15 16 17 18 19 20 21 22 23 24 25 26 27 28 29 30 31 32 33 34 35 36 37 38 39 40 41 42 43 44 45 46 47 48 49 50

000
ASUS43 KDMX 190807
RWRIA

WEATHER ROUNDUP FOR IOWA
NATIONAL WEATHER SERVICE DES MOINES IA
300 AM CDT FRI SEP 19 2014

NOTE: "FAIR" INDICATES FEW OR NO CLOUDS BELOW 12,000 FEET WITH NO
SIGNIFICANT WEATHER AND/OR OBSTRUCTIONS TO VISIBILITY.

* - THESE STATIONS ARE NOT NWS STATIONS...THUS NOT UNDER NWS
QUALITY CONTROL.  THEY ALSO DO NOT REPORT WEATHER SUCH
AS PRECIPITATION OR FOG.

IAZ001>003-012>014-020>022-031>034-043>046-190900-
   NORTHWEST IOWA

CITY           SKY/WX    TMP DP  RH WIND       PRES   REMARKS
CARROLL *      CLOUDY    55  54  94 S5        30.00F FOG
CHEROKEE *     MOCLDY    57  57 100 S8        29.96F
DENISON *      PTCLDY    59  57  94 S8G16     29.97S
LE MARS *        N/A     61  59  94 S14G20    29.92F
ORANGE CITY *  MOCLDY    61  55  82 S14G21    29.92F
SHELDON *      MOCLDY    59  57  94 S14       29.92F
SIOUX CITY     CLOUDY    61  58  90 S13       29.92F
SPENCER        CLEAR     58  55  90 S13       29.96F
STORM LAKE *   CLEAR     57  57 100 S12       29.97F FOG
$$

IAZ055>058-069>071-079>083-090>094-190900-
   SOUTHWEST IOWA

CITY           SKY/WX    TMP DP  RH WIND       PRES   REMARKS
ATLANTIC *     CLOUDY    61  57  88 S8        30.00F
AUDUBON *      MOCLDY    57  52  82 S5        30.02S
CLARINDA *     PTCLDY    57  57 100 CALM      30.02F FOG
COUNCIL BLFS *   N/A     59  59 100 S12       29.97F FOG
CRESTON *      CLEAR     57  55  94 S7        30.03S
HARLAN  *      CLOUDY    59  59 100 S10       30.02F
LAMONI         PTCLDY    58  55  90 SE8       30.04S
SHENANDOAH *     N/A     59  59 100 SE6       30.00F FOG
$$

IAZ047>049-059>061-072>074-084-190900-
   CENTRAL IOWA

CITY           SKY/WX    TMP DP  RH WIND       PRES   REMARKS
AMES           CLEAR     52  51  97 SE5       30.03S
ANKENY *       CLEAR     55  54  94 CALM      30.03S
CHARITON *     CLEAR     55  54  94 SE7       30.04F
DES MOINES     PTCLDY    58  54  86 S8        30.03F
GRINNELL*      CLEAR     54  50  87 SE8       30.06F
KNOXVILLE *    CLEAR     55  52  88 SE6       30.03F
MARSHALLTOWN   PTCLDY    54  51  90 SE7       30.04F
PELLA *        CLEAR     55  54  94 SE9       30.06S
PERRY *          N/A     55  55 100 S6        30.02S FOG
$$

IAZ004>006-015-016-023>025-035-036-190900-
   NORTH CENTRAL IOWA

CITY           SKY/WX    TMP DP  RH WIND       PRES   REMARKS
ALGONA *       CLEAR     57  54  88 S10       30.00F
CLARION *        N/A     55  54  94 SE6       30.02S
ESTHERVILLE    PTCLDY    56  54  93 S15       29.97F
FORT DODGE *   MOCLDY    59  54  82 S9        30.02S
MASON CITY     PTCLDY    54  52  93 SE10      30.03F
FOREST CITY *  PTCLDY    54  54 100 S6        30.02S
IOWA FALLS *     N/A     54  52  94 SE7       30.05S
$$

IAZ007>011-017>019-026>030-037>042-050>054-066-190900-
   NORTHEAST IOWA

CITY           SKY/WX    TMP DP  RH WIND       PRES   REMARKS
CEDAR RAPIDS   CLEAR     54  50  86 SE6       30.08S
CHARLES CITY * CLEAR     54  50  87 SE10      30.05F
CLINTON *      CLEAR     52  50  93 E7        30.14S
DECORAH *      CLEAR     54  52  94 S8        30.07S
DUBUQUE        CLEAR     53  52  96 SE10      30.11S FOG
MONTICELLO *   CLEAR     55  54  94 SE8       30.09F
OELWEIN *      CLEAR     54  50  87 SE9       30.08F
WATERLOO       CLEAR     55  50  83 SE10      30.06S
$$

IAZ064-065-067-068-078-190900-
   EAST CENTRAL IOWA

CITY           SKY/WX    TMP DP  RH WIND       PRES   REMARKS
DAVENPORT      CLEAR     53  50  89 SE8       30.11F FOG
IOWA CITY      CLEAR     52  49  89 SE3       30.10S
MT. PLEASANT * CLEAR     50  48  93 SE6       30.08F
MUSCATINE *    CLEAR     52  48  87 CALM      30.10S
QUAD CITIES    CLEAR     52  49  89 E7        30.11S FOG
$$

IAZ062-063-075>077-085>089-095>099-190900-
   SOUTHEAST IOWA

CITY           SKY/WX    TMP DP  RH WIND       PRES   REMARKS
BURLINGTON     CLEAR     54  48  80 SE6       30.09S
FAIRFIELD *    CLEAR     52  48  87 SE5       30.07F
FORT MADISON * CLEAR     57  50  77 SE6       30.09F
KEOKUK *       CLEAR     55  50  82 SE8       30.07F
OSKALOOSA *      N/A     52  50  93 SE7       30.07S
CENTERVILLE *  CLEAR     54  54 100 SE5       30.07S
OTTUMWA        CLEAR     54  50  86 SE5       30.06S
WASHINGTON *   CLEAR     50  50 100 SE5       30.08F
$$

ABBREVIATIONS USED IN REMARKS
   TC - TEMPERATURES IN CELSIUS
  WCI - WIND CHILL INDEX
   HX - HEAT INDEX
  VSB - VISIBILITY
$$



USA.gov is the U.S. government's official web portal to all federal, state and local government web resources and services.